EW3608 Weather Reports


time (UTC)temp
F
wind
direction
speed
knots
gust
knots
rain 1hr
in
rain 24hr
in
rain mn
in
humidity
%
barometer
mb
20260904011018 84 19 0.0 2.6 0.00 0.00 0.00 24 1014.2
20260904010502 84 5 0.9 2.6 0.00 0.00 0.00 23 1014.2
20260904010011 85 321 0.0 4.3 0.00 0.00 0.00 23 1014.2
20260904005507 85 10 0.9 4.3 0.00 0.00 0.00 23 1014.2
20260904005008 86 360 0.0 2.6 0.00 0.00 0.00 22 1014.2
20260904004515 86 350 0.9 2.6 0.00 0.00 0.00 22 1014.1
20260904004010 86 28 0.9 2.6 0.00 0.00 0.00 22 1014.0
20260904003514 86 22 0.9 2.6 0.00 0.00 0.00 22 1013.9
20260904003027 87 9 0.9 4.3 0.00 0.00 0.00 23 1014.0
20260904002503 87 57 1.7 4.3 0.00 0.00 0.00 22 1013.9
20260904002004 87 32 0.9 4.3 0.00 0.00 0.00 22 1014.0
20260904001510 88 46 1.7 5.2 0.00 0.00 0.00 21 1013.9
20260904001007 88 67 1.7 5.2 0.00 0.00 0.00 21 1013.9
20260904000511 89 37 2.6 7.0 0.00 0.00 0.00 21 1013.8
20260904000020 89 80 2.6 7.8 0.00 0.00 0.00 21 1013.8
20260903235513 89 32 2.6 10.4 0.00 0.00 0.00 21 1013.8
20260903235014 90 52 2.6 10.4 0.00 0.00 0.00 21 1013.8
20260903234502 91 38 3.5 9.6 0.00 0.00 0.00 21 1013.8
20260903234006 92 97 1.7 7.0 0.00 0.00 0.00 20 1013.8
20260903233510 93 352 0.9 2.6 0.00 0.00 0.00 19 1013.8
20260903233029 93 154 0.0 3.5 0.00 0.00 0.00 18 1013.8
20260903232510 93 78 0.9 5.2 0.00 0.00 0.00 19 1013.8
20260903232012 95 71 1.7 5.2 0.00 0.00 0.00 17 1013.8
20260903231539 95 151 0.0 1.7 0.00 0.00 0.00 18 1013.8
20260903231014 94 300 0.0 1.7 0.00 0.00 0.00 18 1013.8
20260903230503 93 142 0.0 2.6 0.00 0.00 0.00 19 1013.8
20260903230006 93 59 0.9 2.6 0.00 0.00 0.00 18 1013.8
20260903225511 93 91 0.9 2.6 0.00 0.00 0.00 18 1013.8
20260903225009 93 314 0.9 2.6 0.00 0.00 0.00 17 1013.9
20260903224520 92 86 0.0 6.1 0.00 0.00 0.00 19 1013.9
20260903224014 92 48 0.9 6.1 0.00 0.00 0.00 18 1014.0
20260903223518 92 347 0.9 7.8 0.00 0.00 0.00 19 1013.9
20260903223033 92 24 0.9 7.8 0.00 0.00 0.00 1014.0
20260903222508 92 63 2.6 7.8 0.00 0.00 0.00 1014.0
20260903222009 92 69 1.7 5.2 0.00 0.00 0.00 1014.2
20260903221510 92 88 0.9 5.2 0.00 0.00 0.00 19 1014.3
20260903221014 92 40 1.7 4.3 0.00 0.00 0.00 19 1014.4
20260903220512 92 91 0.9 5.2 0.00 0.00 0.00 18 1014.4
20260903220036 92 74 2.6 5.2 0.00 0.00 0.00 18 1014.4
20260903215514 92 40 0.9 3.5 0.00 0.00 0.00 18 1014.5
20260903215018 92 74 0.9 3.5 0.00 0.00 0.00 18 1014.5
20260903214507 92 115 1.7 5.2 0.00 0.00 0.00 19 1014.6
20260903214006 91 138 1.7 5.2 0.00 0.00 0.00 20 1014.6
20260903213510 91 42 1.7 3.5 0.00 0.00 0.00 1014.5
20260903213016 91 178 0.9 6.1 0.00 0.00 0.00 1014.6
20260903212514 91 74 1.7 6.1 0.00 0.00 0.00 1014.6
20260903212017 91 46 0.9 5.2 0.00 0.00 0.00 1014.6
20260903211542 91 92 1.7 10.4 0.00 0.00 0.00 1014.6
20260903211016 91 140 1.7 10.4 0.00 0.00 0.00 1014.7
20260903210505 90 126 0.9 9.6 0.00 0.00 0.00 19 1014.7
20260903210013 90 56 1.7 10.4 0.00 0.00 0.00 19 1014.7
20260903205508 90 78 3.5 10.4 0.00 0.00 0.00 19 1014.7
20260903205011 91 73 1.7 4.3 0.00 0.00 0.00 20 1014.9
20260903204523 91 24 0.9 3.5 0.00 0.00 0.00 20 1014.9
20260903204018 90 74 0.0 7.0 0.00 0.00 0.00 20 1014.9
20260903203517 89 198 1.7 8.7 0.00 0.00 0.00 21 1015.0
20260903203034 89 79 1.7 8.7 0.00 0.00 0.00 20 1015.0
20260903202504 89 56 1.7 9.6 0.00 0.00 0.00 21 1015.0
20260903202010 89 112 2.6 9.6 0.00 0.00 0.00 21 1015.0
20260903201516 89 352 1.7 6.1 0.00 0.00 0.00 22 1015.1
20260903201013 89 25 0.9 8.7 0.00 0.00 0.00 22 1015.2
20260903200516 89 360 3.5 8.7 0.00 0.00 0.00 22 1015.3
20260903200027 90 36 2.6 4.3 0.00 0.00 0.00 21 1015.4
20260903195517 89 121 0.9 7.8 0.00 0.00 0.00 22 1015.5
20260903195015 88 102 2.6 7.8 0.00 0.00 0.00 21 1015.6
20260903194510 89 29 3.5 7.8 0.00 0.00 0.00 22 1015.6
20260903194007 89 26 1.7 8.7 0.00 0.00 0.00 22 1015.6
20260903193509 89 164 3.5 8.7 0.00 0.00 0.00 22 1015.6
20260903193023 89 142 1.7 7.0 0.00 0.00 0.00 22 1015.7
20260903192516 88 140 2.6 7.0 0.00 0.00 0.00 22 1015.7
20260903192017 89 15 1.7 5.2 0.00 0.00 0.00 22 1015.8
20260903191533 89 111 1.7 6.1 0.00 0.00 0.00 21 1015.9
20260903191016 89 109 0.9 6.1 0.00 0.00 0.00 21 1015.8
20260903190507 89 102 1.7 6.1 0.00 0.00 0.00 22 1015.9
20260903190012 89 109 1.7 4.3 0.00 0.00 0.00 22 1015.9
20260903185511 89 185 1.7 6.1 0.00 0.00 0.00 22 1016.1
20260903185015 88 59 0.9 6.1 0.00 0.00 0.00 21 1016.1
20260903184528 88 58 1.7 7.8 0.00 0.00 0.00 22 1016.1
20260903184004 88 148 0.9 7.8 0.00 0.00 0.00 22 1016.2
20260903183506 88 119 1.7 4.3 0.00 0.00 0.00 23 1016.2
20260903183008 88 15 0.9 5.2 0.00 0.00 0.00 22 1016.3
20260903182508 87 141 2.6 7.0 0.00 0.00 0.00 22 1016.3
20260903182008 87 46 0.9 8.7 0.00 0.00 0.00 23 1016.4
20260903181522 87 134 1.7 8.7 0.00 0.00 0.00 24 1016.5
20260903181012 87 114 0.9 5.2 0.00 0.00 0.00 22 1016.6
20260903180514 86 132 1.7 5.2 0.00 0.00 0.00 24 1016.7
20260903180003 86 58 1.7 7.0 0.00 0.00 0.00 24 1016.8
20260903175505 86 137 2.6 7.0 0.00 0.00 0.00 24 1016.8
20260903175007 86 30 0.9 6.1 0.00 0.00 0.00 23 1016.9
20260903174517 86 111 1.7 5.2 0.00 0.00 0.00 24 1017.0
20260903174014 86 138 1.7 4.3 0.00 0.00 0.00 24 1017.1
20260903173531 86 205 0.9 7.0 0.00 0.00 0.00 26 1017.1
20260903173028 86 159 0.9 7.8 0.00 0.00 0.00 24 1017.0
20260903172518 86 80 0.9 7.8 0.00 0.00 0.00 25 1017.1
20260903172003 86 219 0.9 5.2 0.00 0.00 0.00 26 1017.1
20260903171507 86 51 1.7 5.2 0.00 0.00 0.00 24 1017.1
20260903171007 86 242 0.9 5.2 0.00 0.00 0.00 24 1017.0
20260903170510 86 190 0.9 6.1 0.00 0.00 0.00 24 1017.0
20260903170029 86 27 1.7 6.1 0.00 0.00 0.00 24 1017.1
20260903165511 86 211 0.9 5.2 0.00 0.00 0.00 23 1016.9
20260903165015 86 101 1.7 5.2 0.00 0.00 0.00 24 1017.0
20260903164529 86 70 0.9 5.2 0.00 0.00 0.00 25 1016.9
20260903164004 86 104 0.9 5.2 0.00 0.00 0.00 24 1016.9
20260903163508 86 144 0.9 6.1 0.00 0.00 0.00 24 1017.0
20260903163012 86 171 1.7 6.1 0.00 0.00 0.00 24 1017.0
20260903162513 85 117 0.9 5.2 0.00 0.00 0.00 25 1016.9
20260903162012 85 91 1.7 4.3 0.00 0.00 0.00 24 1017.0
20260903161526 84 94 1.7 4.3 0.00 0.00 0.00 25 1016.8
20260903161019 84 37 0.9 2.6 0.00 0.00 0.00 26 1016.8
20260903160518 84 134 0.9 3.5 0.00 0.00 0.00 26 1016.9
20260903160008 83 157 0.9 6.1 0.00 0.00 0.00 27 1016.8
20260903155507 82 253 0.0 6.1 0.00 0.00 0.00 27 1016.8
20260903155006 82 57 1.7 5.2 0.00 0.00 0.00 27 1017.0
20260903154515 82 267 0.9 2.6 0.00 0.00 0.00 27 1016.9
20260903154013 81 352 0.9 2.6 0.00 0.00 0.00 28 1017.0
20260903153513 81 242 0.9 2.6 0.00 0.00 0.00 28 1017.1
20260903153031 81 339 0.9 4.3 0.00 0.00 0.00 29 1017.1
20260903152515 81 352 1.7 4.3 0.00 0.00 0.00 28 1017.2
20260903152005 80 351 0.0 2.6 0.00 0.00 0.00 29 1017.2
20260903151511 80 277 0.9 3.5 0.00 0.00 0.00 31 1017.2
20260903151011 79 250 0.9 6.1 0.00 0.00 0.00 31 1017.3
20260903150511 79 299 1.7 7.0 0.00 0.00 0.00 31 1017.3
20260903150039 78 226 0.9 8.7 0.00 0.00 0.00 31 1017.4
20260903145515 78 284 1.7 9.6 0.00 0.00 0.00 32 1017.4
20260903145015 77 268 1.7 10.4 0.00 0.00 0.00 31 1017.5
20260903144532 76 244 4.3 9.6 0.00 0.00 0.00 32 1017.4
20260903144004 76 286 3.5 9.6 0.00 0.00 0.00 34 1017.4
20260903143508 74 221 1.7 9.6 0.00 0.00 0.00 35 1017.4
20260903143026 72 248 4.3 9.6 0.00 0.00 0.00 37 1017.4
20260903142510 69 233 2.6 8.7 0.00 0.00 0.00 54 1017.4
20260903142011 66 199 1.7 6.1 0.00 0.00 0.00 54 1017.4
20260903141530 65 222 0.9 1.7 0.00 0.00 0.00 55 1017.4
20260903141015 64 200 0.0 1.7 0.00 0.00 0.00 57 1017.4
20260903140518 63 300 0.9 3.5 0.00 0.00 0.00 60 1017.5
20260903140008 62 217 0.0 3.5 0.00 0.00 0.00 61 1017.5
20260903135511 61 40 0.0 1.7 0.00 0.00 0.00 61 1017.4
20260903135011 60 342 0.0 1.7 0.00 0.00 0.00 63 1017.4
20260903134522 59 229 0.0 1.7 0.00 0.00 0.00 63 1017.4
20260903134017 59 170 0.0 1.7 0.00 0.00 0.00 64 1017.2
20260903133517 58 223 0.9 1.7 0.00 0.00 0.00 68 1017.3
20260903133034 57 162 0.0 1.7 0.00 0.00 0.00 67 1017.2
20260903132519 56 155 0.0 1.7 0.00 0.00 0.00 69 1017.1
20260903132004 55 178 0.9 1.7 0.00 0.00 0.00 72 1017.2
20260903131511 55 186 0.0 1.7 0.00 0.00 0.00 72 1017.1
20260903131013 55 185 0.0 1.7 0.00 0.00 0.00 72 1017.2
20260903130512 55 185 0.0 1.7 0.00 0.00 0.00 72 1017.1
20260903130027 54 186 0.0 1.7 0.00 0.00 0.00 73 1017.1
20260903125516 54 186 0.0 1.7 0.00 0.00 0.00 72 1016.8
20260903125016 54 186 0.0 1.7 0.00 0.00 0.00 72 1016.8
20260903124508 54 186 0.0 1.7 0.00 0.00 0.00 71 1016.7
20260903124002 54 193 0.9 1.7 0.00 0.00 0.00 72 1016.7
20260903123502 54 200 0.0 1.7 0.00 0.00 0.00 72 1016.7
20260903123002 55 240 0.0 1.7 0.00 0.00 0.00 71 1016.6
20260903122502 55 192 0.0 1.7 0.00 0.00 0.00 71 1016.6
20260903122003 55 192 0.0 1.7 0.00 0.00 0.00 71 1016.5
20260903121504 55 192 0.0 1.7 0.00 0.00 0.00 70 1016.6
20260903121004 55 192 0.0 1.7 0.00 0.00 0.00 71 1016.6
20260903120502 55 208 0.0 1.7 0.00 0.00 0.00 71 1016.5
20260903120004 55 225 0.0 1.7 0.00 0.00 0.00 71 1016.5
20260903115501 55 191 0.0 1.7 0.00 0.00 0.00 71 1016.5
20260903115002 55 191 0.9 1.7 0.00 0.00 0.00 70 1016.5
20260903114503 55 195 0.9 1.7 0.00 0.00 0.00 71 1016.5
20260903114002 55 194 0.0 1.7 0.00 0.00 0.00 70 1016.5
20260903113504 55 194 0.0 1.7 0.00 0.00 0.00 70 1016.5
20260903113003 56 194 0.0 1.7 0.00 0.00 0.00 70 1016.4
20260903112503 56 194 0.0 1.7 0.00 0.00 0.00 70 1016.4
20260903112003 56 194 0.0 1.7 0.00 0.00 0.00 69 1016.4
20260903111503 56 180 0.9 1.7 0.00 0.00 0.00 69 1016.4
20260903111002 56 202 0.0 1.7 0.00 0.00 0.00 67 1016.4
20260903110503 57 202 0.0 1.7 0.00 0.00 0.00 68 1016.4
20260903110003 57 202 0.0 1.7 0.00 0.00 0.00 66 1016.4
20260903105503 57 202 0.0 1.7 0.00 0.00 0.00 67 1016.5
20260903105004 57 202 0.0 1.7 0.00 0.00 0.00 66 1016.6
20260903104503 57 198 0.0 1.7 0.00 0.00 0.00 68 1016.5
20260903104004 57 180 0.0 1.7 0.00 0.00 0.00 68 1016.5
20260903103503 57 180 0.9 2.6 0.00 0.00 0.00 68 1016.5
20260903103004 57 216 0.9 2.6 0.00 0.00 0.00 65 1016.4
20260903102503 56 207 0.0 1.7 0.00 0.00 0.00 69 1016.4
20260903102002 57 191 0.0 1.7 0.00 0.00 0.00 69 1016.5
20260903101505 57 197 0.0 1.7 0.00 0.00 0.00 68 1016.6
20260903101002 57 197 0.0 1.7 0.00 0.00 0.00 68 1016.7
20260903100503 57 197 0.0 1.7 0.00 0.00 0.00 68 1016.6
20260903100004 57 209 0.0 1.7 0.00 0.00 0.00 68 1016.5
20260903095502 57 209 0.0 1.7 0.00 0.00 0.00 68 1016.5
20260903095004 57 189 0.0 1.7 0.00 0.00 0.00 67 1016.6
20260903094504 58 191 0.0 1.7 0.00 0.00 0.00 68 1016.7
20260903094004 58 191 0.0 1.7 0.00 0.00 0.00 68 1016.8
20260903093503 58 192 0.0 1.7 0.00 0.00 0.00 67 1016.8
20260903090003 60 196 0.0 1.7 0.00 0.00 0.00 64 1016.6
20260903085503 60 196 0.0 1.7 0.00 0.00 0.00 63 1016.6
20260903085002 60 196 0.0 1.7 0.00 0.00 0.00 62 1016.5
20260903084509 60 211 0.0 1.7 0.00 0.00 0.00 62 1016.4
20260903084003 60 212 0.0 1.7 0.00 0.00 0.00 63 1016.5
20260903083505 60 212 0.0 1.7 0.00 0.00 0.00 63 1016.5
20260903083003 61 212 0.0 1.7 0.00 0.00 0.00 63 1016.5
20260903082503 61 212 0.0 0.0 0.00 0.00 0.00 62 1016.5
20260903082003 61 212 0.0 1.7 0.00 0.00 0.00 61 1016.5
20260903081503 61 212 0.0 1.7 0.00 0.00 0.00 61 1016.5
20260903081002 62 212 0.0 1.7 0.00 0.00 0.00 61 1016.5
20260903080502 62 212 0.0 1.7 0.00 0.00 0.00 61 1016.6
20260903080006 62 215 0.0 1.7 0.00 0.00 0.00 61 1016.6
20260903075503 63 204 0.0 1.7 0.00 0.00 0.00 60 1016.6
20260903075003 63 215 0.0 1.7 0.00 0.00 0.00 60 1016.6
20260903074503 64 203 0.0 1.7 0.00 0.00 0.00 58 1016.5
20260903074003 64 215 0.0 1.7 0.00 0.00 0.00 57 1016.5
20260903073503 64 211 0.0 1.7 0.00 0.00 0.00 57 1016.5
20260903073004 65 211 0.0 1.7 0.00 0.00 0.00 55 1016.5
20260903072502 65 211 0.0 1.7 0.00 0.00 0.00 55 1016.4
20260903072003 65 211 0.0 1.7 0.00 0.00 0.00 56 1016.6
20260903071504 65 211 0.0 1.7 0.00 0.00 0.00 54 1016.7
20260903071005 65 211 0.0 1.7 0.00 0.00 0.00 54 1016.8
20260903070503 66 206 0.0 1.7 0.00 0.00 0.00 55 1016.8
20260903070001 66 205 0.0 1.7 0.00 0.00 0.00 54 1016.9
20260903065501 66 205 0.0 1.7 0.00 0.00 0.00 54 1016.9
20260903065003 66 202 0.0 1.7 0.00 0.00 0.00 52 1017.0
20260903064503 66 200 0.0 1.7 0.00 0.00 0.00 52 1016.9
20260903064003 66 200 0.0 1.7 0.00 0.00 0.00 52 1016.9
20260903063502 66 219 0.0 1.7 0.00 0.00 0.00 52 1017.0
20260903063004 66 234 0.0 1.7 0.00 0.00 0.00 54 1017.0
20260903062505 66 234 0.0 1.7 0.00 0.00 0.00 55 1017.1
20260903062005 66 162 0.0 1.7 0.00 0.00 0.00 56 1017.1
20260903061510 66 178 0.0 1.7 0.00 0.00 0.00 56 1017.1
20260903061007 65 220 0.0 1.7 0.00 0.00 0.00 56 1017.1
20260903060503 65 197 0.0 1.7 0.00 0.00 0.00 58 1017.1
20260903060003 65 163 0.0 1.7 0.00 0.00 0.00 1017.1
20260903055504 65 144 0.0 1.7 0.00 0.00 0.00 60 1017.1
20260903055002 65 144 0.0 1.7 0.00 0.00 0.00 60 1017.0
20260903054503 65 125 0.0 1.7 0.00 0.00 0.00 60 1017.1
20260903054002 65 136 0.0 1.7 0.00 0.00 0.00 60 1016.9
20260903053504 65 136 0.0 1.7 0.00 0.00 0.00 60 1017.0
20260903053005 65 127 0.0 1.7 0.00 0.00 0.00 59 1017.1
20260903052503 65 56 0.0 0.0 0.00 0.00 0.00 59 1017.0
20260903052002 66 54 0.0 1.7 0.00 0.00 0.00 58 1017.0
20260903051506 66 54 0.0 1.7 0.00 0.00 0.00 1016.9
20260903051002 66 55 0.0 1.7 0.00 0.00 0.00 1017.1
20260903050503 66 76 0.0 1.7 0.00 0.00 0.00 1017.1
20260903050019 66 76 0.0 1.7 0.00 0.00 0.00 59 1017.1
20260903045504 67 86 0.0 1.7 0.00 0.00 0.00 59 1017.2
20260903045003 67 28 0.0 1.7 0.00 0.00 0.00 58 1017.1
20260903044516 67 28 0.0 1.7 0.00 0.00 0.00 57 1016.9
20260903044003 67 11 0.0 1.7 0.00 0.00 0.00 57 1017.0
20260903043503 67 61 0.0 1.7 0.00 0.00 0.00 58 1017.2
20260903043003 67 75 0.0 1.7 0.00 0.00 0.00 56 1017.2
20260903042502 67 175 0.0 1.7 0.00 0.00 0.00 56 1017.2
20260903042007 67 192 0.0 1.7 0.00 0.00 0.00 56 1017.3
20260903041510 67 176 0.0 1.7 0.00 0.00 0.00 1017.5
20260903041003 67 157 0.0 1.7 0.00 0.00 0.00 55 1017.6
20260903040502 68 168 0.0 1.7 0.00 0.00 0.00 55 1017.4
20260903040008 68 190 0.0 1.7 0.00 0.00 0.00 55 1017.2
20260903035503 68 181 0.0 1.7 0.00 0.00 0.00 54 1017.1
20260903035002 68 184 0.0 1.7 0.00 0.00 0.00 54 1017.1
20260903034506 69 184 0.9 1.7 0.00 0.00 0.00 53 1017.0
20260903034004 69 105 0.0 1.7 0.00 0.00 0.00 52 1017.0
20260903033507 70 73 0.0 1.7 0.00 0.00 0.00 52 1016.9
20260903033003 70 71 0.0 1.7 0.00 0.00 0.00 51 1016.8
20260903032504 71 113 0.0 1.7 0.00 0.00 0.00 50 1017.1
20260903032004 71 136 0.0 1.7 0.00 0.00 0.00 49 1017.2
20260903031506 71 217 0.0 2.6 0.00 0.00 0.00 48 1017.3
20260903031003 72 190 0.0 2.6 0.00 0.00 0.00 47 1017.3
20260903030506 72 159 0.0 1.7 0.00 0.00 0.00 47 1017.2
20260903030004 72 243 0.0 1.7 0.00 0.00 0.00 46 1017.1
20260903025503 73 243 0.0 1.7 0.00 0.00 0.00 46 1017.0
20260903025003 73 244 0.0 1.7 0.00 0.00 0.00 45 1016.9
20260903024504 73 229 0.0 3.5 0.00 0.00 0.00 45 1016.8
20260903024004 73 351 0.9 3.5 0.00 0.00 0.00 44 1016.8
20260903023503 74 13 0.9 2.6 0.00 0.00 0.00 45 1016.6
20260903023008 74 13 0.9 4.3 0.00 0.00 0.00 45 1016.6
20260903022504 74 40 1.7 4.3 0.00 0.00 0.00 44 1016.7
20260903022003 74 57 0.0 1.7 0.00 0.00 0.00 43 1016.8
20260903021505 75 210 0.0 1.7 0.00 0.00 0.00 42 1016.8
20260903021004 75 196 0.0 2.6 0.00 0.00 0.00 42 1016.5
20260903020506 76 34 0.9 2.6 0.00 0.00 0.00 40 1016.1
20260903020006 76 326 0.9 2.6 0.00 0.00 0.00 40 1015.9
20260903015506 76 19 0.0 0.9 0.00 0.00 0.00 40 1015.8
20260903015005 76 19 0.0 1.7 0.00 0.00 0.00 41 1015.9
20260903014507 76 19 0.0 1.7 0.00 0.00 0.00 40 1015.9
20260903014003 76 19 0.0 1.7 0.00 0.00 0.00 40 1015.9
20260903013503 76 18 0.0 1.7 0.00 0.00 0.00 39 1015.8
20260903013007 77 25 0.0 1.7 0.00 0.00 0.00 40 1015.6
20260903012504 77 25 0.0 1.7 0.00 0.00 0.00 39 1015.6
20260903012004 77 28 0.0 2.6 0.00 0.00 0.00 38 1015.6
20260903011507 77 55 0.9 2.6 0.00 0.00 0.00 38 1015.6